LEMUR-2-PAPPY (44861 NORAD) Tracking and Keplerian Element Data

This shows tracking and keplerian element data for the satellite.

Feedback or suggestion? Click here.




ElementValue
Catalog44861
NameLEMUR-2-PAPPY
Epoch Orbit557
Epoch Day18.09700876
Epoch Year2020
RAAN272.8789
Inclination36.9686
Eccentricity0.0007848
Argument of Perigee268.6998
Mean Anonmoly91.284
Mean Motion14.98625638
Decay Rate5.38E-06
L11 44861U 19089K 20018.09700876 .00000538 00000-0 50406-4 0 9993
L22 44861 36.9686 272.8789 0007848 268.6998 91.2840 14.98625638 5574

Live tracking and technical data element details for LEMUR-2-PAPPY (NORAD 44861). LEMUR-2-PAPPY can be tracked NOW for your location showing map with azimuth and elevation plus other details from your city location.

Track the satellite on the map from your city or location and see movement details for azimuth, elevation, latitude, longitude, range, height, and movement on the map or in text.







IsCatalogInMostPopularTable: catalog: 44861, numindb: 8
Update: records affected: 1



GetName: 44861 LEMUR-2-PAPPY

Hit Count: updated at: Sat, 18 Jan 2020 18:12:12 GMT